Year,Month,Day,Hour,Minute,Value (Times are PST for temperature in C)
2014,08,23,00,00,9.80
2014,08,23,00,01,9.80
2014,08,23,00,02,9.80
2014,08,23,00,03,9.80
2014,08,23,00,04,9.80
2014,08,23,00,05,9.80
2014,08,23,00,06,9.80
2014,08,23,00,07,9.80
2014,08,23,00,08,9.80
2014,08,23,00,09,9.70
2014,08,23,00,10,9.70
2014,08,23,00,11,9.70
2014,08,23,00,12,9.70
2014,08,23,00,13,9.70
2014,08,23,00,17,9.70
2014,08,23,00,18,9.70
2014,08,23,00,19,9.70
2014,08,23,00,20,9.70
2014,08,23,00,21,9.70
2014,08,23,00,22,9.70
2014,08,23,00,23,9.70
2014,08,23,00,24,9.70
2014,08,23,00,25,9.70
2014,08,23,00,26,9.60
2014,08,23,00,27,9.60
2014,08,23,00,28,9.60
2014,08,23,00,29,9.60
2014,08,23,00,30,9.60
2014,08,23,00,31,9.60
2014,08,23,00,32,9.60
2014,08,23,00,33,9.60
2014,08,23,00,34,9.60
2014,08,23,00,35,9.60
2014,08,23,00,36,9.60
2014,08,23,00,37,9.60
2014,08,23,00,38,9.60
2014,08,23,00,39,9.60
2014,08,23,00,40,9.60
2014,08,23,00,41,9.60
2014,08,23,00,42,9.50
2014,08,23,00,43,9.50
2014,08,23,00,44,9.50
2014,08,23,00,45,9.50
2014,08,23,00,46,9.50
2014,08,23,00,47,9.50
2014,08,23,00,48,9.40
2014,08,23,00,49,9.40
2014,08,23,00,50,9.50
2014,08,23,00,51,9.50
2014,08,23,00,52,9.50
2014,08,23,00,53,9.50
2014,08,23,00,54,9.50
2014,08,23,00,55,9.50
2014,08,23,00,56,9.50
2014,08,23,00,57,9.50
2014,08,23,00,58,9.50
2014,08,23,00,59,9.50
2014,08,23,01,00,9.50
2014,08,23,01,01,9.50
2014,08,23,01,02,9.50
2014,08,23,01,03,9.50
2014,08,23,01,04,9.50
2014,08,23,01,05,9.50
2014,08,23,01,06,9.50
2014,08,23,01,07,9.50
2014,08,23,01,08,9.50
2014,08,23,01,09,9.50
2014,08,23,01,10,9.50
2014,08,23,01,11,9.60
2014,08,23,01,12,9.60
2014,08,23,01,13,9.60
2014,08,23,01,14,9.60
2014,08,23,01,15,9.60
2014,08,23,01,16,9.60
2014,08,23,01,17,9.60
2014,08,23,01,18,9.60
2014,08,23,01,19,9.70
2014,08,23,01,20,9.70
2014,08,23,01,21,9.70
2014,08,23,01,22,9.70
2014,08,23,01,23,9.70
2014,08,23,01,24,9.70
2014,08,23,01,25,9.70
2014,08,23,01,26,9.70
2014,08,23,01,27,9.70
2014,08,23,01,28,9.70
2014,08,23,01,29,9.70
2014,08,23,01,30,9.70
2014,08,23,01,31,9.70
2014,08,23,01,32,9.70
2014,08,23,01,33,9.70
2014,08,23,01,34,9.70
2014,08,23,01,35,9.70
2014,08,23,01,36,9.70
2014,08,23,01,37,9.70
2014,08,23,01,38,9.70
2014,08,23,01,39,9.80
2014,08,23,01,40,9.70
2014,08,23,01,41,9.80
2014,08,23,01,42,9.70
2014,08,23,01,43,9.80
2014,08,23,01,44,9.80
2014,08,23,01,45,9.80
2014,08,23,01,46,9.80
2014,08,23,01,47,9.80
2014,08,23,01,48,9.80
2014,08,23,01,49,9.80
2014,08,23,01,50,9.80
2014,08,23,01,51,9.80
2014,08,23,01,52,9.80
2014,08,23,01,53,9.80
2014,08,23,01,54,9.80
2014,08,23,01,55,9.80
2014,08,23,01,56,9.80
2014,08,23,01,57,9.80
2014,08,23,01,58,9.80
2014,08,23,01,59,9.80
2014,08,23,02,00,9.80
2014,08,23,02,01,9.80
2014,08,23,02,02,9.80
2014,08,23,02,03,9.80
2014,08,23,02,04,9.80
2014,08,23,02,05,9.80
2014,08,23,02,06,9.80
2014,08,23,02,07,9.80
2014,08,23,02,08,9.80
2014,08,23,02,09,9.70
2014,08,23,02,10,9.70
2014,08,23,02,11,9.70
2014,08,23,02,12,9.70
2014,08,23,02,13,9.70
2014,08,23,02,14,9.70
2014,08,23,02,15,9.70
2014,08,23,02,16,9.70
2014,08,23,02,17,9.70
2014,08,23,02,18,9.70
2014,08,23,02,19,9.70
2014,08,23,02,20,9.70
2014,08,23,02,21,9.70
2014,08,23,02,22,9.70
2014,08,23,02,23,9.70
2014,08,23,02,24,9.70
2014,08,23,02,25,9.70
2014,08,23,02,26,9.70
2014,08,23,02,27,9.70
2014,08,23,02,28,9.70
2014,08,23,02,29,9.70
2014,08,23,02,30,9.70
2014,08,23,02,31,9.70
2014,08,23,02,32,9.70
2014,08,23,02,33,9.70
2014,08,23,02,34,9.70
2014,08,23,02,35,9.70
2014,08,23,02,36,9.70
2014,08,23,02,37,9.70
2014,08,23,02,38,9.70
2014,08,23,02,39,9.70
2014,08,23,02,40,9.60
2014,08,23,02,41,9.60
2014,08,23,02,42,9.60
2014,08,23,02,43,9.60
2014,08,23,02,44,9.60
2014,08,23,02,45,9.60
2014,08,23,02,46,9.60
2014,08,23,02,47,9.60
2014,08,23,02,48,9.60
2014,08,23,02,49,9.60
2014,08,23,02,50,9.60
2014,08,23,02,51,9.60
2014,08,23,02,52,9.60
2014,08,23,02,53,9.60
2014,08,23,02,54,9.60
2014,08,23,02,55,9.60
2014,08,23,02,56,9.60
2014,08,23,02,57,9.60
2014,08,23,02,58,9.60
2014,08,23,02,59,9.70
2014,08,23,03,00,9.70
2014,08,23,03,01,9.70
2014,08,23,03,02,9.70
2014,08,23,03,03,9.70
2014,08,23,03,04,9.70
2014,08,23,03,05,9.70
2014,08,23,03,06,9.70
2014,08,23,03,07,9.70
2014,08,23,03,08,9.60
2014,08,23,03,09,9.60
2014,08,23,03,10,9.60
2014,08,23,03,11,9.60
2014,08,23,03,12,9.60
2014,08,23,03,13,9.60
2014,08,23,03,14,9.60
2014,08,23,03,15,9.50
2014,08,23,03,16,9.50
2014,08,23,03,17,9.50
2014,08,23,03,18,9.50
2014,08,23,03,19,9.40
2014,08,23,03,20,9.40
2014,08,23,03,21,9.40
2014,08,23,03,22,9.40
2014,08,23,03,23,9.30
2014,08,23,03,24,9.30
2014,08,23,03,25,9.30
2014,08,23,03,26,9.30
2014,08,23,03,27,9.30
2014,08,23,03,28,9.20
2014,08,23,03,29,9.20
2014,08,23,03,30,9.20
2014,08,23,03,31,9.20
2014,08,23,03,32,9.10
2014,08,23,03,33,9.10
2014,08,23,03,34,9.10
2014,08,23,03,35,9.10
2014,08,23,03,36,9.00
2014,08,23,03,37,9.00
2014,08,23,03,38,9.00
2014,08,23,03,39,8.90
2014,08,23,03,40,8.90
2014,08,23,03,41,8.90
2014,08,23,03,42,8.90
2014,08,23,03,43,8.90
2014,08,23,03,44,8.90
2014,08,23,03,45,8.90
2014,08,23,03,46,8.80
2014,08,23,03,47,8.80
2014,08,23,03,48,8.80
2014,08,23,03,49,8.80
2014,08,23,03,50,8.80
2014,08,23,03,51,8.80
2014,08,23,03,52,8.80
2014,08,23,03,53,8.70
2014,08,23,03,54,8.70
2014,08,23,03,55,8.70
2014,08,23,03,56,8.70
2014,08,23,03,57,8.70
2014,08,23,03,58,8.70
2014,08,23,03,59,8.70
2014,08,23,04,00,8.70
2014,08,23,04,01,8.70
2014,08,23,04,02,8.70
2014,08,23,04,03,8.60
2014,08,23,04,04,8.60
2014,08,23,04,05,8.60
2014,08,23,04,06,8.60
2014,08,23,04,07,8.60
2014,08,23,04,08,8.60
2014,08,23,04,09,8.60
2014,08,23,04,10,8.70
2014,08,23,04,11,8.70
2014,08,23,04,12,8.70
2014,08,23,04,13,8.70
2014,08,23,04,14,8.70
2014,08,23,04,15,8.70
2014,08,23,04,16,8.70
2014,08,23,04,17,8.70
2014,08,23,04,18,8.70
2014,08,23,04,19,8.70
2014,08,23,04,20,8.80
2014,08,23,04,21,8.80
2014,08,23,04,22,8.90
2014,08,23,04,23,8.90
2014,08,23,04,24,8.90
2014,08,23,04,25,9.00
2014,08,23,04,26,9.10
2014,08,23,04,27,9.20
2014,08,23,04,28,9.20
2014,08,23,04,29,9.20
2014,08,23,04,30,9.30
2014,08,23,04,31,9.30
2014,08,23,04,32,9.30
2014,08,23,04,33,9.30
2014,08,23,04,34,9.30
2014,08,23,04,35,9.30
2014,08,23,04,36,9.20
2014,08,23,04,37,9.20
2014,08,23,04,38,9.10
2014,08,23,04,39,9.10
2014,08,23,04,40,9.10
2014,08,23,04,41,9.00
2014,08,23,04,42,9.00
2014,08,23,04,43,9.00
2014,08,23,04,44,8.90
2014,08,23,04,45,8.90
2014,08,23,04,46,8.90
2014,08,23,04,47,8.90
2014,08,23,04,48,8.90
2014,08,23,04,49,8.80
2014,08,23,04,50,8.80
2014,08,23,04,51,8.80
2014,08,23,04,52,8.80
2014,08,23,04,53,8.80
2014,08,23,04,54,8.80
2014,08,23,04,55,8.80
2014,08,23,04,56,8.80
2014,08,23,04,57,8.70
2014,08,23,04,58,8.70
2014,08,23,04,59,8.70
2014,08,23,05,00,8.70
2014,08,23,05,01,8.70
2014,08,23,05,02,8.70
2014,08,23,05,03,8.70
2014,08,23,05,04,8.70
2014,08,23,05,05,8.70
2014,08,23,05,06,8.70
2014,08,23,05,07,8.70
2014,08,23,05,08,8.60
2014,08,23,05,09,8.60
2014,08,23,05,10,8.70
2014,08,23,05,11,8.70
2014,08,23,05,12,8.70
2014,08,23,05,13,8.70
2014,08,23,05,14,8.70
2014,08,23,05,15,8.70
2014,08,23,05,16,8.70
2014,08,23,05,17,8.70
2014,08,23,05,18,8.70
2014,08,23,05,19,8.70
2014,08,23,05,20,8.70
2014,08,23,05,21,8.70
2014,08,23,05,22,8.70
2014,08,23,05,23,8.70
2014,08,23,05,24,8.70
2014,08,23,05,25,8.70
2014,08,23,05,26,8.70
2014,08,23,05,27,8.70
2014,08,23,05,28,8.70
2014,08,23,05,29,8.70
2014,08,23,05,30,8.70
2014,08,23,05,31,8.70
2014,08,23,05,32,8.70
2014,08,23,05,33,8.70
2014,08,23,05,34,8.70
2014,08,23,05,35,8.70
2014,08,23,05,36,8.70
2014,08,23,05,37,8.70
2014,08,23,05,38,8.70
2014,08,23,05,39,8.70
2014,08,23,05,40,8.70
2014,08,23,05,41,8.70
2014,08,23,05,42,8.70
2014,08,23,05,43,8.70
2014,08,23,05,44,8.70
2014,08,23,05,45,8.70
2014,08,23,05,46,8.70
2014,08,23,05,47,8.70
2014,08,23,05,48,8.60
2014,08,23,05,49,8.60
2014,08,23,05,50,8.60
2014,08,23,05,51,8.60
2014,08,23,05,52,8.60
2014,08,23,05,53,8.50
2014,08,23,05,54,8.50
2014,08,23,05,55,8.50
2014,08,23,05,56,8.50
2014,08,23,05,57,8.50
2014,08,23,05,58,8.50
2014,08,23,05,59,8.50
2014,08,23,06,00,8.50
2014,08,23,06,01,8.50
2014,08,23,06,02,8.50
2014,08,23,06,03,8.50
2014,08,23,06,04,8.50
2014,08,23,06,05,8.50
2014,08,23,06,06,8.50
2014,08,23,06,07,8.40
2014,08,23,06,08,8.40
2014,08,23,06,09,8.40
2014,08,23,06,10,8.40
2014,08,23,06,11,8.40
2014,08,23,06,12,8.50
2014,08,23,06,13,8.40
2014,08,23,06,14,8.40
2014,08,23,06,15,8.40
2014,08,23,06,16,8.40
2014,08,23,06,17,8.40
2014,08,23,06,18,8.40
2014,08,23,06,19,8.40
2014,08,23,06,20,8.40
2014,08,23,06,21,8.40
2014,08,23,06,22,8.40
2014,08,23,06,23,8.40
2014,08,23,06,24,8.30
2014,08,23,06,25,8.30
2014,08,23,06,26,8.30
2014,08,23,06,27,8.30
2014,08,23,06,28,8.30
2014,08,23,06,29,8.30
2014,08,23,06,30,8.30
2014,08,23,06,31,8.30
2014,08,23,06,32,8.30
2014,08,23,06,33,8.30
2014,08,23,06,34,8.20
2014,08,23,06,35,8.20
2014,08,23,06,36,8.20
2014,08,23,06,37,8.20
2014,08,23,06,38,8.20
2014,08,23,06,39,8.20
2014,08,23,06,40,8.20
2014,08,23,06,41,8.20
2014,08,23,06,42,8.20
2014,08,23,06,43,8.20
2014,08,23,06,44,8.20
2014,08,23,06,45,8.20
2014,08,23,06,46,8.20
2014,08,23,06,47,8.20
2014,08,23,06,48,8.20
2014,08,23,06,49,8.20
2014,08,23,06,50,8.20
2014,08,23,06,51,8.20
2014,08,23,06,52,8.20
2014,08,23,06,53,8.20
2014,08,23,06,54,8.20
2014,08,23,06,55,8.20
2014,08,23,06,56,8.20
2014,08,23,06,57,8.20
2014,08,23,06,58,8.20
2014,08,23,06,59,8.20
2014,08,23,07,00,8.20
2014,08,23,07,01,8.20
2014,08,23,07,02,8.20
2014,08,23,07,03,8.20
2014,08,23,07,04,8.20
2014,08,23,07,05,8.20
2014,08,23,07,06,8.20
2014,08,23,07,07,8.20
2014,08,23,07,08,8.20
2014,08,23,07,09,8.20
2014,08,23,07,10,8.20
2014,08,23,07,11,8.20
2014,08,23,07,12,8.30
2014,08,23,07,13,8.30
2014,08,23,07,14,8.30
2014,08,23,07,15,8.30
2014,08,23,07,16,8.30
2014,08,23,07,17,8.30
2014,08,23,07,18,8.30
2014,08,23,07,19,8.30
2014,08,23,07,20,8.30
2014,08,23,07,21,8.30
2014,08,23,07,22,8.30
2014,08,23,07,23,8.30
2014,08,23,07,24,8.30
2014,08,23,07,25,8.30
2014,08,23,07,26,8.30
2014,08,23,07,27,8.40
2014,08,23,07,28,8.40
2014,08,23,07,29,8.40
2014,08,23,07,30,8.40
2014,08,23,07,31,8.40
2014,08,23,07,32,8.40
2014,08,23,07,33,8.40
2014,08,23,07,34,8.40
2014,08,23,07,35,8.40
2014,08,23,07,36,8.40
2014,08,23,07,37,8.50
2014,08,23,07,38,8.50
2014,08,23,07,39,8.50
2014,08,23,07,40,8.50
2014,08,23,07,41,8.50
2014,08,23,07,42,8.50
2014,08,23,07,43,8.60
2014,08,23,07,44,8.60
2014,08,23,07,45,8.60
2014,08,23,07,46,8.60
2014,08,23,07,47,8.60
2014,08,23,07,48,8.60
2014,08,23,07,49,8.60
2014,08,23,07,50,8.70
2014,08,23,07,51,8.70
2014,08,23,07,52,8.70
2014,08,23,07,53,8.80
2014,08,23,07,54,8.90
2014,08,23,07,55,9.00
2014,08,23,07,56,9.00
2014,08,23,07,57,9.10
2014,08,23,07,58,9.10
2014,08,23,07,59,9.30
2014,08,23,08,00,9.30
2014,08,23,08,01,9.50
2014,08,23,08,02,9.60
2014,08,23,08,03,9.80
2014,08,23,08,04,9.90
2014,08,23,08,05,10.00
2014,08,23,08,06,10.00
2014,08,23,08,07,10.10
2014,08,23,08,08,10.20
2014,08,23,08,09,10.20
2014,08,23,08,10,10.30
2014,08,23,08,11,10.40
2014,08,23,08,12,10.50
2014,08,23,08,13,10.50
2014,08,23,08,14,10.60
2014,08,23,08,15,10.60
2014,08,23,08,16,10.60
2014,08,23,08,17,10.60
2014,08,23,08,18,10.70
2014,08,23,08,19,10.70
2014,08,23,08,20,10.80
2014,08,23,08,21,10.80
2014,08,23,08,22,10.80
2014,08,23,08,23,10.90
2014,08,23,08,24,10.90
2014,08,23,08,25,11.00
2014,08,23,08,26,11.00
2014,08,23,08,27,11.00
2014,08,23,08,28,11.10
2014,08,23,08,29,11.10
2014,08,23,08,30,11.10
2014,08,23,08,31,11.20
2014,08,23,08,32,11.20
2014,08,23,08,33,11.30
2014,08,23,08,34,11.30
2014,08,23,08,35,11.40
2014,08,23,08,36,11.50
2014,08,23,08,37,11.50
2014,08,23,08,38,11.60
2014,08,23,08,39,11.60
2014,08,23,08,40,11.70
2014,08,23,08,41,11.80
2014,08,23,08,42,11.80
2014,08,23,08,43,11.90
2014,08,23,08,44,11.90
2014,08,23,08,45,12.00
2014,08,23,08,46,12.00
2014,08,23,08,47,12.00
2014,08,23,08,48,12.00
2014,08,23,08,49,12.10
2014,08,23,08,50,12.10
2014,08,23,08,51,12.10
2014,08,23,08,52,12.10
2014,08,23,08,53,12.10
2014,08,23,08,54,12.10
2014,08,23,08,55,12.20
2014,08,23,08,56,12.20
2014,08,23,08,57,12.20
2014,08,23,08,58,12.20
2014,08,23,08,59,12.10
2014,08,23,09,00,12.20
2014,08,23,09,01,12.20
2014,08,23,09,02,12.20
2014,08,23,09,03,12.20
2014,08,23,09,04,12.20
2014,08,23,09,05,12.30
2014,08,23,09,06,12.30
2014,08,23,09,07,12.30
2014,08,23,09,08,12.30
2014,08,23,09,09,12.40
2014,08,23,09,10,12.40
2014,08,23,09,11,12.40
2014,08,23,09,12,12.30
2014,08,23,09,13,12.20
2014,08,23,09,14,12.10
2014,08,23,09,15,12.00
2014,08,23,09,16,11.90
2014,08,23,09,17,11.80
2014,08,23,09,18,11.80
2014,08,23,09,19,11.80
2014,08,23,09,20,11.80
2014,08,23,09,21,11.80
2014,08,23,09,22,11.80
2014,08,23,09,23,11.80
2014,08,23,09,24,11.80
2014,08,23,09,25,11.80
2014,08,23,09,26,11.80
2014,08,23,09,27,11.80
2014,08,23,09,28,11.70
2014,08,23,09,29,11.70
2014,08,23,09,30,11.70
2014,08,23,09,31,11.70
2014,08,23,09,32,11.70
2014,08,23,09,33,11.70
2014,08,23,09,34,11.70
2014,08,23,09,35,11.70
2014,08,23,09,36,11.70
2014,08,23,09,37,11.70
2014,08,23,09,38,11.80
2014,08,23,09,39,11.80
2014,08,23,09,40,11.90
2014,08,23,09,41,11.90
2014,08,23,09,42,11.90
2014,08,23,09,43,12.00
2014,08,23,09,44,12.00
2014,08,23,09,45,11.90
2014,08,23,09,46,11.90
2014,08,23,09,47,11.90
2014,08,23,09,48,11.90
2014,08,23,09,49,11.90
2014,08,23,09,50,12.00
2014,08,23,09,51,12.10
2014,08,23,09,52,12.10
2014,08,23,09,53,12.10
2014,08,23,09,54,12.20
2014,08,23,09,55,12.10
2014,08,23,09,56,12.20
2014,08,23,09,57,12.20
2014,08,23,09,58,12.20
2014,08,23,09,59,12.20
2014,08,23,10,00,12.30
2014,08,23,10,01,12.30
2014,08,23,10,02,12.40
2014,08,23,10,03,12.40
2014,08,23,10,04,12.50
2014,08,23,10,05,12.50
2014,08,23,10,06,12.60
2014,08,23,10,07,12.60
2014,08,23,10,08,12.70
2014,08,23,10,09,12.70
2014,08,23,10,10,12.70
2014,08,23,10,11,12.80
2014,08,23,10,12,12.80
2014,08,23,10,13,12.80
2014,08,23,10,14,12.80
2014,08,23,10,15,12.80
2014,08,23,10,16,12.80
2014,08,23,10,17,12.80
2014,08,23,10,18,12.80
2014,08,23,10,19,12.90
2014,08,23,10,20,12.90
2014,08,23,10,21,12.90
2014,08,23,10,22,13.00
2014,08,23,10,23,13.00
2014,08,23,10,24,13.00
2014,08,23,10,25,13.10
2014,08,23,10,26,13.10
2014,08,23,10,27,13.20
2014,08,23,10,28,13.30
2014,08,23,10,29,13.30
2014,08,23,10,30,13.40
2014,08,23,10,31,13.50
2014,08,23,10,32,13.50
2014,08,23,10,33,13.60
2014,08,23,10,34,13.60
2014,08,23,10,35,13.70
2014,08,23,10,36,13.70
2014,08,23,10,37,13.70
2014,08,23,10,38,13.80
2014,08,23,10,39,13.80
2014,08,23,10,40,13.90
2014,08,23,10,41,13.90
2014,08,23,10,42,13.90
2014,08,23,10,43,13.90
2014,08,23,10,44,14.00
2014,08,23,10,45,14.00
2014,08,23,10,46,14.00
2014,08,23,10,47,13.90
2014,08,23,10,48,13.90
2014,08,23,10,49,13.90
2014,08,23,10,50,13.90
2014,08,23,10,51,13.90
2014,08,23,10,52,13.90
2014,08,23,10,53,14.00
2014,08,23,10,54,14.00
2014,08,23,10,55,14.10
2014,08,23,10,56,14.20
2014,08,23,10,57,14.20
2014,08,23,10,58,14.20
2014,08,23,10,59,14.20
2014,08,23,11,00,14.30
2014,08,23,11,01,14.30
2014,08,23,11,02,14.30
2014,08,23,11,03,14.30
2014,08,23,11,04,14.30
2014,08,23,11,05,14.30
2014,08,23,11,06,14.30
2014,08,23,11,07,14.30
2014,08,23,11,08,14.40
2014,08,23,11,09,14.40
2014,08,23,11,10,14.40
2014,08,23,11,11,14.50
2014,08,23,11,12,14.50
2014,08,23,11,13,14.50
2014,08,23,11,14,14.60
2014,08,23,11,15,14.70
2014,08,23,11,16,14.70
2014,08,23,11,17,14.70
2014,08,23,11,18,14.70
2014,08,23,11,19,14.80
2014,08,23,11,20,14.90
2014,08,23,11,21,15.00
2014,08,23,11,22,15.00
2014,08,23,11,23,15.10
2014,08,23,11,24,15.20
2014,08,23,11,25,15.30
2014,08,23,11,26,15.40
2014,08,23,11,27,15.50
2014,08,23,11,28,15.60
2014,08,23,11,29,15.80
2014,08,23,11,30,15.90
2014,08,23,11,31,16.00
2014,08,23,11,32,16.10
2014,08,23,11,33,16.10
2014,08,23,11,34,16.20
2014,08,23,11,35,16.30
2014,08,23,11,36,16.40
2014,08,23,11,37,16.50
2014,08,23,11,38,16.50
2014,08,23,11,39,16.50
2014,08,23,11,40,16.60
2014,08,23,11,41,16.60
2014,08,23,11,42,16.60
2014,08,23,11,43,16.60
2014,08,23,11,44,16.50
2014,08,23,11,45,16.50
2014,08,23,11,46,16.50
2014,08,23,11,47,16.50
2014,08,23,11,48,16.50
2014,08,23,11,49,16.60
2014,08,23,11,50,16.60
2014,08,23,11,51,16.60
2014,08,23,11,52,16.60
2014,08,23,11,53,16.70
2014,08,23,11,54,16.80
2014,08,23,11,55,16.80
2014,08,23,11,56,16.90
2014,08,23,11,57,16.90
2014,08,23,11,58,16.90
2014,08,23,11,59,17.00
2014,08,23,12,00,17.00
2014,08,23,12,01,17.00
2014,08,23,12,02,17.00
2014,08,23,12,03,17.00
2014,08,23,12,04,17.00
2014,08,23,12,05,17.10
2014,08,23,12,06,17.10
2014,08,23,12,07,17.20
2014,08,23,12,08,17.20
2014,08,23,12,09,17.20
2014,08,23,12,10,17.20
2014,08,23,12,11,17.20
2014,08,23,12,12,17.30
2014,08,23,12,13,17.30
2014,08,23,12,14,17.20
2014,08,23,12,15,17.20
2014,08,23,12,16,17.20
2014,08,23,12,17,17.20
2014,08,23,12,18,17.20
2014,08,23,12,19,17.10
2014,08,23,12,20,17.10
2014,08,23,12,21,17.00
2014,08,23,12,22,16.90
2014,08,23,12,23,16.80
2014,08,23,12,24,16.80
2014,08,23,12,25,16.80
2014,08,23,12,26,16.80
2014,08,23,12,27,16.80
2014,08,23,12,28,16.80
2014,08,23,12,29,16.90
2014,08,23,12,30,17.00
2014,08,23,12,31,17.10
2014,08,23,12,32,17.20
2014,08,23,12,33,17.30
2014,08,23,12,34,17.30
2014,08,23,12,35,17.30
2014,08,23,12,36,17.30
2014,08,23,12,37,17.40
2014,08,23,12,38,17.40
2014,08,23,12,39,17.50
2014,08,23,12,40,17.50
2014,08,23,12,41,17.60
2014,08,23,12,42,17.60
2014,08,23,12,43,17.70
2014,08,23,12,44,17.70
2014,08,23,12,45,17.80
2014,08,23,12,46,17.90
2014,08,23,12,47,17.90
2014,08,23,12,48,17.90
2014,08,23,12,49,17.90
2014,08,23,12,50,17.80
2014,08,23,12,51,17.80
2014,08,23,12,52,17.70
2014,08,23,12,53,17.70
2014,08,23,12,54,17.60
2014,08,23,12,55,17.60
2014,08,23,12,56,17.60
2014,08,23,12,57,17.60
2014,08,23,12,58,17.60
2014,08,23,12,59,17.70
2014,08,23,13,00,17.70
2014,08,23,13,01,17.70
2014,08,23,13,02,17.70
2014,08,23,13,03,17.80
2014,08,23,13,04,17.80
2014,08,23,13,05,17.90
2014,08,23,13,06,17.90
2014,08,23,13,07,17.90
2014,08,23,13,08,17.90
2014,08,23,13,09,17.90
2014,08,23,13,10,17.90
2014,08,23,13,11,18.00
2014,08,23,13,12,18.00
2014,08,23,13,13,18.00
2014,08,23,13,14,17.90
2014,08,23,13,15,17.90
2014,08,23,13,16,17.80
2014,08,23,13,17,17.70
2014,08,23,13,18,17.70
2014,08,23,13,19,17.70
2014,08,23,13,20,17.70
2014,08,23,13,21,17.80
2014,08,23,13,22,17.80
2014,08,23,13,23,17.80
2014,08,23,13,24,17.90
2014,08,23,13,25,17.90
2014,08,23,13,26,18.00
2014,08,23,13,27,18.00
2014,08,23,13,28,18.10
2014,08,23,13,29,18.20
2014,08,23,13,30,18.40
2014,08,23,13,31,18.60
2014,08,23,13,32,18.90
2014,08,23,13,33,19.10
2014,08,23,13,34,19.40
2014,08,23,13,35,19.60
2014,08,23,13,36,19.80
2014,08,23,13,37,20.00
2014,08,23,13,38,20.10
2014,08,23,13,39,20.20
2014,08,23,13,40,20.30
2014,08,23,13,41,20.40
2014,08,23,13,42,20.40
2014,08,23,13,43,20.50
2014,08,23,13,44,20.60
2014,08,23,13,45,20.60
2014,08,23,13,46,20.70
2014,08,23,13,47,20.70
2014,08,23,13,48,20.80
2014,08,23,13,49,20.90
2014,08,23,13,50,20.90
2014,08,23,13,51,21.00
2014,08,23,13,52,21.00
2014,08,23,13,53,21.10
2014,08,23,13,54,21.10
2014,08,23,13,55,21.10
2014,08,23,13,56,21.10
2014,08,23,13,57,21.10
2014,08,23,13,58,21.10
2014,08,23,13,59,21.20
2014,08,23,14,00,21.10
2014,08,23,14,01,21.10
2014,08,23,14,02,21.00
2014,08,23,14,03,21.00
2014,08,23,14,04,20.90
2014,08,23,14,05,20.90
2014,08,23,14,06,20.90
2014,08,23,14,07,20.90
2014,08,23,14,08,20.90
2014,08,23,14,09,20.90
2014,08,23,14,10,20.80
2014,08,23,14,11,20.80
2014,08,23,14,12,20.70
2014,08,23,14,13,20.70
2014,08,23,14,14,20.60
2014,08,23,14,15,20.50
2014,08,23,14,16,20.40
2014,08,23,14,17,20.30
2014,08,23,14,18,20.20
2014,08,23,14,19,20.20
2014,08,23,14,20,20.30
2014,08,23,14,21,20.30
2014,08,23,14,22,20.40
2014,08,23,14,23,20.50
2014,08,23,14,24,20.60
2014,08,23,14,25,20.60
2014,08,23,14,26,20.60
2014,08,23,14,27,20.60
2014,08,23,14,28,20.60
2014,08,23,14,29,20.60
2014,08,23,14,30,20.60
2014,08,23,14,31,20.70
2014,08,23,14,32,20.70
2014,08,23,14,33,20.70
2014,08,23,14,34,20.80
2014,08,23,14,35,20.90
2014,08,23,14,36,20.90
2014,08,23,14,37,20.90
2014,08,23,14,38,20.80
2014,08,23,14,39,20.80
2014,08,23,14,40,20.80
2014,08,23,14,41,20.80
2014,08,23,14,42,20.70
2014,08,23,14,43,20.60
2014,08,23,14,44,20.60
2014,08,23,14,45,20.60
2014,08,23,14,46,20.60
2014,08,23,14,47,20.60
2014,08,23,14,48,20.50
2014,08,23,14,49,20.50
2014,08,23,14,50,20.40
2014,08,23,14,51,20.40
2014,08,23,14,52,20.40
2014,08,23,14,53,20.40
2014,08,23,14,54,20.40
2014,08,23,14,55,20.50
2014,08,23,14,56,20.50
2014,08,23,14,57,20.50
2014,08,23,14,58,20.60
2014,08,23,14,59,20.60
2014,08,23,15,00,20.70
2014,08,23,15,01,20.80
2014,08,23,15,02,20.90
2014,08,23,15,03,21.00
2014,08,23,15,04,21.10
2014,08,23,15,05,21.20
2014,08,23,15,06,21.30
2014,08,23,15,07,21.40
2014,08,23,15,08,21.40
2014,08,23,15,09,21.40
2014,08,23,15,10,21.40
2014,08,23,15,11,21.40
2014,08,23,15,12,21.40
2014,08,23,15,13,21.50
2014,08,23,15,14,21.50
2014,08,23,15,15,21.40
2014,08,23,15,16,21.30
2014,08,23,15,17,21.20
2014,08,23,15,18,21.20
2014,08,23,15,19,21.20
2014,08,23,15,20,21.20
2014,08,23,15,21,21.20
2014,08,23,15,22,21.30
2014,08,23,15,23,21.40
2014,08,23,15,24,21.40
2014,08,23,15,25,21.50
2014,08,23,15,26,21.50
2014,08,23,15,27,21.50
2014,08,23,15,28,21.40
2014,08,23,15,29,21.30
2014,08,23,15,30,21.20
2014,08,23,15,31,21.10
2014,08,23,15,32,21.10
2014,08,23,15,33,21.10
2014,08,23,15,34,21.00
2014,08,23,15,35,20.90
2014,08,23,15,36,20.90
2014,08,23,15,37,20.90
2014,08,23,15,38,20.90
2014,08,23,15,39,20.90
2014,08,23,15,40,20.90
2014,08,23,15,41,20.90
2014,08,23,15,42,20.90
2014,08,23,15,43,20.90
2014,08,23,15,44,20.80
2014,08,23,15,45,20.80
2014,08,23,15,46,20.90
2014,08,23,15,47,20.90
2014,08,23,15,48,21.00
2014,08,23,15,49,21.00
2014,08,23,15,50,21.00
2014,08,23,15,51,20.90
2014,08,23,15,52,20.90
2014,08,23,15,53,20.90
2014,08,23,15,54,20.90
2014,08,23,15,55,21.00
2014,08,23,15,56,21.00
2014,08,23,15,57,21.10
2014,08,23,15,58,21.10
2014,08,23,15,59,21.20
2014,08,23,16,00,21.20
2014,08,23,16,01,21.30
2014,08,23,16,02,21.40
2014,08,23,16,03,21.50
2014,08,23,16,04,21.60
2014,08,23,16,05,21.60
2014,08,23,16,06,21.70
2014,08,23,16,07,21.60
2014,08,23,16,08,21.50
2014,08,23,16,09,21.50
2014,08,23,16,10,21.50
2014,08,23,16,11,21.50
2014,08,23,16,12,21.60
2014,08,23,16,13,21.60
2014,08,23,16,14,21.60
2014,08,23,16,15,21.70
2014,08,23,16,16,21.60
2014,08,23,16,17,21.60
2014,08,23,16,18,21.60
2014,08,23,16,19,21.60
2014,08,23,16,20,21.60
2014,08,23,16,21,21.60
2014,08,23,16,22,21.60
2014,08,23,16,23,21.60
2014,08,23,16,24,21.60
2014,08,23,16,25,21.70
2014,08,23,16,26,21.70
2014,08,23,16,27,21.70
2014,08,23,16,28,21.70
2014,08,23,16,29,21.60
2014,08,23,16,30,21.60
2014,08,23,16,31,21.60
2014,08,23,16,32,21.50
2014,08,23,16,33,21.50
2014,08,23,16,34,21.40
2014,08,23,16,35,21.30
2014,08,23,16,36,21.30
2014,08,23,16,37,21.20
2014,08,23,16,38,21.20
2014,08,23,16,39,21.20
2014,08,23,16,40,21.20
2014,08,23,16,41,21.20
2014,08,23,16,42,21.20
2014,08,23,16,43,21.20
2014,08,23,16,44,21.30
2014,08,23,16,45,21.30
2014,08,23,16,46,21.30
2014,08,23,16,47,21.30
2014,08,23,16,48,21.30
2014,08,23,16,49,21.20
2014,08,23,16,50,21.10
2014,08,23,16,51,20.90
2014,08,23,16,52,20.70
2014,08,23,16,53,20.60
2014,08,23,16,54,20.40
2014,08,23,16,55,20.30
2014,08,23,16,56,20.10
2014,08,23,16,57,20.00
2014,08,23,16,58,19.90
2014,08,23,16,59,19.80
2014,08,23,17,00,19.70
2014,08,23,17,01,19.60
2014,08,23,17,02,19.60
2014,08,23,17,03,19.60
2014,08,23,17,04,19.50
2014,08,23,17,05,19.50
2014,08,23,17,06,19.50
2014,08,23,17,07,19.50
2014,08,23,17,08,19.50
2014,08,23,17,09,19.60
2014,08,23,17,10,19.70
2014,08,23,17,11,19.80
2014,08,23,17,12,19.90
2014,08,23,17,13,19.90
2014,08,23,17,14,19.90
2014,08,23,17,15,20.00
2014,08,23,17,16,20.00
2014,08,23,17,17,20.00
2014,08,23,17,18,20.00
2014,08,23,17,19,19.90
2014,08,23,17,20,19.80
2014,08,23,17,21,19.70
2014,08,23,17,22,19.50
2014,08,23,17,23,19.40
2014,08,23,17,24,19.30
2014,08,23,17,25,19.30
2014,08,23,17,26,19.30
2014,08,23,17,27,19.40
2014,08,23,17,28,19.50
2014,08,23,17,29,19.50
2014,08,23,17,30,19.60
2014,08,23,17,31,19.60
2014,08,23,17,32,19.50
2014,08,23,17,33,19.50
2014,08,23,17,34,19.50
2014,08,23,17,35,19.40
2014,08,23,17,36,19.30
2014,08,23,17,37,19.20
2014,08,23,17,38,19.00
2014,08,23,17,39,18.90
2014,08,23,17,40,18.80
2014,08,23,17,41,18.70
2014,08,23,17,42,18.60
2014,08,23,17,43,18.60